Total_Precipitation_Accumulation
2.74 3.05 3.21 3.57 3.49 3.53 3.90 4.37 4.37 4.65 4.62 4.41 4.08 3.69 3.57 3.28 2.94 3.03 3.09 2.89 2.79 3.09 3.81 4.38 4.31 4.06 3.74 3.69 3.63 3.46 3.17 2.94 2.69 2.29 2.08 2.10 2.12 2.01 1.94 1.90 1.80 1.64 1.44
3.30 3.68 3.77 3.91 3.72 3.73 4.21 4.55 4.63 5.22 5.07 4.82 4.25 3.92 3.69 3.53 3.22 3.08 3.24 3.35 2.94 2.84 3.37 4.26 4.67 4.54 4.33 4.31 4.13 3.85 3.53 3.27 3.15 2.62 2.24 2.13 2.22 2.23 2.12 2.00 1.82 1.65 1.40
3.79 4.12 4.10 4.01 4.03 4.03 4.44 4.74 4.86 5.02 4.74 4.51 4.35 4.10 3.90 3.66 3.24 3.23 3.25 3.44 3.24 3.04 3.30 3.76 4.33 4.57 4.75 4.89 4.71 4.41 3.91 3.48 3.21 2.84 2.40 2.22 2.22 2.21 2.12 2.02 1.80 1.55 1.29
3.84 4.41 4.20 4.04 4.44 4.28 4.55 5.18 5.23 5.16 5.11 4.84 4.64 4.18 3.90 3.72 3.19 3.11 3.13 3.34 3.69 3.20 3.30 3.70 4.00 4.20 4.84 5.34 5.38 5.22 4.67 4.00 3.36 2.92 2.49 2.27 2.24 2.19 2.13 2.00 1.83 1.57 1.26
3.76 4.23 4.14 4.26 4.27 4.60 4.79 4.46 5.22 5.35 5.20 4.88 4.15 3.92 3.51 3.36 3.31 2.99 3.12 3.16 3.55 3.39 3.42 3.49 3.78 4.00 4.76 5.72 6.21 6.16 5.68 4.93 4.13 3.54 3.14 2.94 2.91 2.70 2.42 2.20 1.92 1.70 1.37
3.66 4.20 4.05 4.03 4.09 4.59 4.77 4.71 5.21 5.21 4.86 4.72 3.68 3.52 3.39 3.00 2.96 3.01 2.81 3.02 3.29 2.97 3.24 3.55 3.98 3.54 3.90 4.55 5.65 6.30 6.36 6.01 5.31 4.91 4.64 4.24 3.90 3.45 2.86 2.39 2.04 1.83 1.60
3.55 4.13 3.79 4.22 4.11 4.31 4.43 4.40 4.79 4.92 4.52 4.48 4.39 3.91 3.13 2.68 2.63 2.63 2.69 2.88 2.88 3.00 3.67 4.28 4.44 4.25 4.01 3.87 4.28 5.06 6.00 6.32 5.87 5.45 5.42 5.19 4.88 4.20 3.37 2.74 2.30 1.96 1.76
3.40 3.67 4.02 3.93 3.98 4.19 4.19 4.22 4.59 4.58 4.10 4.19 4.45 4.51 3.72 3.34 2.77 2.14 2.47 2.62 2.75 3.19 3.51 3.74 4.14 4.50 4.64 4.90 4.20 4.09 4.91 5.69 5.92 5.65 5.37 5.43 5.26 4.43 3.70 3.38 2.90 2.41 2.16
3.19 3.39 3.71 3.75 3.83 3.67 3.89 4.12 4.10 4.14 4.06 3.98 4.01 4.50 4.17 3.70 3.08 2.45 2.25 2.38 2.78 3.13 3.21 3.46 3.50 3.84 4.15 4.86 4.90 4.32 4.13 4.37 4.99 5.67 5.63 5.30 5.04 4.40 3.89 3.75 3.57 3.11 2.82
2.96 3.13 3.30 3.32 3.39 3.34 3.63 3.34 3.49 3.84 4.07 3.91 3.79 3.68 3.75 3.90 3.76 3.04 2.48 2.35 2.66 2.86 2.87 2.85 3.15 3.60 3.72 4.05 4.39 4.23 3.84 3.50 3.73 4.52 5.16 5.23 4.92 4.37 4.10 4.15 4.35 4.10 3.53
2.82 2.76 2.97 3.08 3.06 3.00 3.12 3.19 3.56 3.52 3.67 3.69 3.70 3.66 3.75 3.77 3.56 3.37 2.96 2.79 2.72 2.45 2.44 2.63 2.96 3.30 3.47 3.69 4.02 3.96 3.93 3.40 3.32 3.49 3.93 4.45 4.70 4.62 4.34 4.42 4.93 5.04 4.57
2.75 2.67 2.73 2.92 2.83 2.82 2.96 3.11 3.24 3.24 3.37 3.46 3.45 3.48 3.77 3.65 3.51 3.59 3.18 2.99 2.87 2.50 2.46 2.56 2.73 3.04 3.21 3.37 3.23 3.50 3.48 3.11 2.99 2.91 2.93 3.23 3.68 4.05 4.20 4.46 5.08 5.43 5.31
2.29 2.45 2.60 2.72 2.68 2.69 2.75 2.95 3.06 3.15 3.29 3.32 3.22 3.26 3.35 3.37 3.50 3.64 3.67 3.24 2.97 2.56 2.60 2.51 2.49 2.78 2.92 3.24 3.18 3.08 2.73 2.57 2.41 2.31 2.39 2.49 2.66 2.97 3.25 3.68 4.37 4.96 5.20
1.99 2.10 2.23 2.28 2.39 2.53 2.54 3.00 3.02 3.08 3.19 3.11 2.90 3.33 3.22 2.95 3.21 3.42 3.73 3.92 3.52 2.98 2.93 2.74 2.48 2.47 2.65 2.80 2.88 2.70 2.24 2.18 1.96 1.90 1.91 1.95 2.00 2.12 2.33 2.59 2.98 3.37 3.81
2.13 2.18 2.19 2.23 2.36 2.59 2.81 3.10 3.08 3.10 3.21 3.07 3.09 3.28 3.11 2.87 2.91 3.00 3.51 3.94 4.07 3.57 3.23 3.08 2.89 2.53 2.45 2.44 2.63 2.38 2.33 2.21 1.89 1.79 1.73 1.63 1.60 1.69 1.86 2.00 2.11 2.28 2.46
2.33 2.33 2.34 2.38 2.35 2.47 2.73 2.97 2.97 3.00 3.13 3.12 3.16 3.34 3.28 3.00 3.03 3.06 3.42 3.84 4.07 4.14 3.55 3.10 3.04 2.67 2.44 2.21 2.47 2.31 2.22 2.24 1.93 1.75 1.68 1.59 1.50 1.46 1.46 1.53 1.59 1.66 1.80
2.20 2.16 2.13 2.18 2.21 2.35 2.59 2.68 2.59 2.67 2.69 2.87 2.80 2.95 3.07 3.26 3.23 3.25 3.47 3.66 3.89 4.18 3.68 3.27 3.33 3.14 2.87 2.57 2.43 2.38 2.16 2.07 1.94 1.83 1.62 1.56 1.49 1.39 1.37 1.38 1.40 1.46 1.54
1.90 1.81 1.88 1.98 2.02 2.14 2.31 2.27 2.22 2.35 2.48 2.68 2.85 2.99 2.85 3.03 3.12 3.12 3.30 3.51 3.75 4.04 3.85 3.61 3.69 3.63 3.37 2.99 2.83 2.69 2.29 2.08 1.97 1.98 1.73 1.57 1.49 1.44 1.36 1.37 1.38 1.37 1.41
1.62 1.64 1.75 1.86 1.93 2.05 2.02 1.97 2.07 2.14 2.27 2.48 2.68 2.69 2.61 2.81 2.79 2.95 3.05 3.19 3.42 3.68 3.80 3.64 3.64 3.72 3.45 3.21 3.10 2.70 2.43 2.43 2.07 2.11 2.06 1.77 1.56 1.48 1.45 1.41 1.37 1.40 1.41
1.63 1.68 1.82 1.95 1.92 1.90 1.89 2.02 2.14 2.20 2.27 2.27 2.25 2.24 2.23 2.35 2.50 2.82 2.89 2.97 3.12 3.36 3.49 3.53 3.56 3.56 3.41 3.36 3.38 2.99 2.79 2.67 2.39 2.06 2.09 1.84 1.73 1.65 1.55 1.46 1.43 1.45 1.52
1.61 1.71 1.91 1.98 1.98 1.89 1.74 1.98 2.16 2.10 2.17 2.15 2.06 1.91 1.84 1.95 2.13 2.34 2.22 2.47 2.73 2.91 3.02 3.19 3.31 3.47 3.31 3.41 3.27 3.17 2.99 2.89 2.78 2.44 2.35 1.99 1.83 1.70 1.58 1.50 1.45 1.48 1.57
1.71 1.76 1.75 1.80 1.72 1.44 1.59 1.84 1.97 2.01 2.13 2.17 2.04 1.92 1.78 1.77 1.82 1.88 1.89 1.98 2.22 2.42 2.59 2.87 3.05 3.22 3.08 3.10 3.32 3.31 3.20 3.02 2.87 2.71 2.85 2.66 2.37 2.18 1.85 1.52 1.48 1.46 1.49
1.78 1.77 1.68 1.71 1.68 1.62 1.72 1.76 1.77 1.87 2.06 2.08 2.12 2.11 1.78 1.46 1.64 1.61 1.68 1.70 1.75 1.90 2.16 2.52 2.68 2.72 2.93 3.00 3.35 3.38 3.48 3.34 3.13 3.01 3.23 3.16 2.96 2.74 2.05 1.83 1.81 1.54 1.41
1.77 1.77 1.76 1.77 1.85 1.81 1.84 1.70 1.74 1.72 1.86 1.94 1.97 1.94 1.87 1.75 1.66 1.65 1.66 1.62 1.47 1.55 1.76 1.82 1.97 2.26 2.80 3.18 3.27 3.31 3.62 3.58 3.32 3.18 3.27 3.31 3.04 2.93 2.37 1.94 1.78 1.50 1.34
1.74 1.70 1.70 1.72 1.76 1.86 1.96 1.86 1.82 1.74 1.85 1.86 1.81 1.72 1.67 1.68 1.73 1.61 1.66 1.65 1.53 1.48 1.54 1.67 1.76 1.98 2.30 2.69 2.96 3.04 3.16 3.32 3.29 3.22 3.28 3.38 3.25 3.17 3.09 2.69 2.08 1.76 1.44
1.95 1.91 1.83 1.83 1.82 1.88 1.88 1.68 1.64 1.55 1.64 1.69 1.73 1.59 1.48 1.41 1.47 1.47 1.57 1.72 1.60 1.52 1.59 1.59 1.57 1.68 1.85 2.06 2.22 2.22 2.42 2.65 2.74 2.87 2.83 3.15 3.38 3.53 3.68 3.47 2.85 2.27 1.89